Location: Berg
(47.2344°N, 9.5296°E)
Time: 22:51:30
(UTC+00:00)

USA 234 - Pass Details

Date: 24 January 2021
Orbit: 1100 x 1107 km, 123.0° (Epoch: 01 March)

Event Time Altitude Azimuth Distance (km) Brightness Sun altitude
Exits shadow 17:29:28 16° 61° (ENE) 2,538 4.6 -13.1°
Maximum altitude 17:34:06 38° 3° (N) 1,625 4.0 -13.8°
Drops below altitude 10° 17:40:01 10° 298° (WNW) 2,968 6.3 -14.8°
Sets 17:42:41 0° 291° (WNW) 3,927 7.2 -15.3°
